Location: *
(40.7873°S, 98.7174°E)
Time: 23:59:01
(UTC+00:00)

Cosmos 1153 Rocket - Pass Details

Date: 16 October 2022
Orbit: 953 x 1007 km, 82.9° (Epoch: 09 December)

Event Time Altitude Azimuth Distance (km) Brightness Sun altitude
Rises 17:20:19 0° 178° (S) 3,670 8.4 -40.1°
Reaches altitude 10° 17:23:14 10° 166° (SSE) 2,714 7.5 -40.1°
Enters shadow 17:26:45 25° 135° (SE) 1,852 6.2 -40.0°
